Regional Weather Roundup
Issued by NWS

Home | Current Version | Previous Version | Text Only | Print | Product List | Glossary On
Versions: 1 2 3 4 5 6 7 8 9 10 11 12 13 14 15 16 17 18 19 20 21 22 23 24 25 26 27 28 29 30 31 32 33 34 35 36 37 38 39 40 41 42 43 44 45 46 47 48 49 50
000
ASUS46 KSTO 061815
RWRCA

NORTHERN AND CENTRAL CA REGIONAL WEATHER ROUNDUP
NATIONAL WEATHER SERVICE SACRAMENTO CA
1000 AM PST TUE DEC 06 2016

NOTE: FAIR INDICATES FEW OR NO CLOUDS BELOW 12,000 FEET WITH NO
SIGNIFICANT WEATHER AND/OR OBSTRUCTIONS TO VISIBILITY.

CAZ001-003-061900-
NORTHWEST AREA

CITY           SKY/WX    TMP DP  RH WIND       PRES   REMARKS
CRESCENT CITY  MOSUNNY   43  40  89 E6        30.11R
UKIAH          CLOUDY    39  34  82 CALM      30.11R
$$

CAZ006-505>513-061900-
BAY AREA

CITY           SKY/WX    TMP DP  RH WIND       PRES   REMARKS
SANTA ROSA     PTSUNNY   44  37  76 VRB3      30.10S
SAN RAFAEL     N/A       46  MM  MM MISG
NAPA           MOSUNNY   46  38  73 CALM      30.11R
CONCORD        NOT AVBL
OAKLAND CITY   N/A       48  MM  MM MISG
OAKLAND        PTSUNNY   50  37  61 W3        30.13R
SAN FRAN CITY  N/A       MM  MM  MM MISG
SAN FRAN ARPT  PTSUNNY   53  36  52 CALM      30.13R
LIVERMORE      MOSUNNY   43  39  86 CALM      30.11S
HAYWARD        MOSUNNY   50  32  50 CALM      30.13R
REDWOOD CITY   N/A       49  MM  63 MISG
MOFFETT ARPT   MOSUNNY   51  39  63 CALM      30.14R
SAN JOSE ARPT  CLOUDY    50  35  56 CALM      30.13S
$$
CAZ034-037-514>518-061900-
CENTRAL COAST

CITY           SKY/WX    TMP DP  RH WIND       PRES   REMARKS
WATSONVILLE    MOSUNNY   50  47  89 S3        30.13R
SALINAS        PTSUNNY   50  43  77 W5        30.12R
MONTEREY       MOSUNNY   50  43  77 W6        30.13R
SAN LUIS OBISP MOSUNNY   57  42  57 N13       30.06R
SANTA MARIA    SUNNY     52  43  71 CALM      30.07R
$$
CAZ015-016-061900-
NORTHERN SACRAMENTO VALLEY

CITY           SKY/WX    TMP DP  RH WIND       PRES   REMARKS
REDDING        SUNNY     40  33  76 CALM      30.05S
RED BLUFF      MOSUNNY   40  32  73 SE5       30.07R
OROVILLE       SUNNY     46  40  79 E6        30.09R
$$
CAZ016>018-061900-
SOUTHERN SACRAMENTO VALLEY

CITY           SKY/WX    TMP DP  RH WIND       PRES   REMARKS
AUBURN         CLOUDY    43  39  87 S3        30.05S
BEALE AFB      MOSUNNY   44  44  99 E5        30.06S FOG
LINCOLN        CLOUDY    39  37  93 SE6       30.07F VSB 1/4 WCI  35
MARYSVILLE     SUNNY     39  37  92 E5        30.09R
SAC INTL ARPT  PTSUNNY   44  37  76 S5        30.08R
MATHER AIRPORT FOG       43  43 100 SE5       30.10R VSB 1/4
DOWNTOWN SAC   N/A       42  MM  MM MISG
SAC EXEC ARPT  SUNNY     45  43  93 CALM      30.09R
VACAVILLE      MOSUNNY   52  37  56 S3        30.09R
TRAVIS AFB     MOSUNNY   49  38  64 SW9       30.06S
$$
CAZ019>021-061900-
SAN JOAQUIN VALLEY

CITY           SKY/WX    TMP DP  RH WIND       PRES   REMARKS
STOCKTON       MOSUNNY   50  43  77 SW7       30.10R
MODESTO        MOSUNNY   51  37  58 NW8       30.10R
MERCED         CLOUDY    47  42  83 NW7       30.10R HAZE
LEMOORE        CLOUDY    46  44  93 CALM      30.10S FOG
FRESNO         FOG       46  44  93 CALM      30.10R VSB 1
HANFORD        PTSUNNY   48  47  96 NW5       30.10S FOG
PORTERVILLE    SUNNY     49  44  83 N3        30.11R HAZE
BAKERSFIELD    CLOUDY    49  43  80 NW3       30.09R HAZE
$$
CAZ011-012-071-061900-
NORTHERN MOUNTAINS

CITY           SKY/WX    TMP DP  RH WIND       PRES   REMARKS
YREKA          CLOUDY    34  30  85 S7        29.98R WCI  28
MOUNT SHASTA   CLOUDY    34  25  69 CALM      29.93R
ALTURAS        CLOUDY    28  23  81 S5        29.89S WCI  23
$$
CAZ011-012-071-061900-
SIERRA NEVADA MTNS

CITY           SKY/WX    TMP DP  RH WIND       PRES   REMARKS
BLUE CANYON    CLOUDY    30  26  85 S13       29.97R WCI  20
TRUCKEE        MOSUNNY   32  16  51 W3        29.90R
TAHOE VLY ARPT SUNNY     35   3  26 S8        29.89R WCI  29
MAMMOTH LAKES  FAIR      40  -8  13 SW37G51   29.88F WCI  27
$$




USA.gov is the U.S. government's official web portal to all federal, state and local government web resources and services.